Location: Krakow
(50.0830°N, 19.9170°E)
Time: 12:02:00
(UTC+02:00)

A-11 Canister half - Pass Details

Date: 18 March 2026
Orbit: 1523 x 1684 km, 47.3° (Epoch: 16 April)

Event Time Altitude Azimuth Distance (km) Brightness Sun altitude
Rises 12:03:42 0° 273° (W) 4,847 11.6 39.0°
Reaches altitude 10° 12:06:52 10° 272° (W) 3,839 11.2 38.9°
Maximum altitude 12:16:33 73° 190° (S) 1,633 10.3 38.7°
Drops below altitude 10° 12:25:55 10° 108° (ESE) 3,717 11.2 38.4°
Sets 12:28:56 0° 107° (ESE) 4,686 11.6 38.3°
